User: anonymous   Login
Location: Doussal
(55.6167°N, 116.8333°W)
Time: 12:22:20
(UTC+00:00)
Language:

KAITUO 1B - Orbit

View from above orbital plane
View from above orbital plane
View from above satellite
View from above satellite

Ground track
Ground track

The orbit data is extracted from the following two-line orbital elements,

1 40912U 15049P   23335.12230418  .00193950  00000-0  14845-2 0  9993
2 40912  97.3937 358.5567 0005380 149.5375 210.6201 15.71536613455537
Epoch (UTC): 01 December 2023 02:56:07
Eccentricity: 0.0005380
inclination: 97.3937°
perigee height: 351 km
apogee height: 358 km
right ascension of ascending node: 358.5567°
argument of perigee: 149.5375°
revolutions per day: 15.71536613
mean anomaly at epoch: 210.6201°
orbit number at epoch: 45553

The dashed part of the orbit path shows where the satellite is in the earth's shadow,  

DLR